Location: St. Louis
(38.6270°N, 90.1994°W)
Time: 04:12:20
(UTC-06:00)

Tiros 1 - Pass Details

Date: 04 December 2021
Orbit: 630 x 663 km, 48.4° (Epoch: 20 January)

Event Time Altitude Azimuth Distance (km) Brightness Sun altitude
Rises 19:16:16 0° 263° (W) 2,917 11.7 -30.0°
Reaches altitude 10° 19:18:43 10° 271° (W) 2,015 10.6 -30.4°
Enters shadow 19:21:40 30° 302° (WNW) 1,134 8.7 -31.0°
